Location: Mountain View
(37.3861°N, 122.0839°W)
Time: 15:49:42
(UTC-07:00)

Envisat - Pass Details

Date: 16 May 2026
Orbit: 761 x 763 km, 98.4° (Epoch: 7 June)

Event Time Altitude Azimuth Distance (km) Brightness Sun altitude
Rises 02:58:18 0° 24° (NNE) 3,228 7.5 -27.5°
Reaches altitude 10° 03:00:52 10° 35° (NE) 2,298 6.5 -27.2°
Maximum altitude 03:05:19 31° 97° (E) 1,315 4.4 -26.7°
Enters shadow 03:06:38 27° 125° (SE) 1,426 4.3 -26.6°
